Zhou Enlai (43156 NORAD) Tracking and Keplerian Element Data

This shows tracking and keplerian element data for the satellite.

Feedback or suggestion? Click here.




ElementValue
Catalog43156
NameZhou Enlai
Epoch Orbit2635
Epoch Day193.86243417
Epoch Year2018
RAAN267.861
Inclination97.5282
Eccentricity0.0016521
Argument of Perigee57.8458
Mean Anonmoly45.3378
Mean Motion15.10064959
Decay Rate5.72E-06
L11 43156U 18008B 18193.86243417 .00000572 00000-0 38959-4 0 9995
L22 43156 97.5282 267.8610 0016521 57.8458 45.3378 15.10064959 26352

Live tracking and technical data element details for Zhou Enlai (NORAD 43156). Zhou Enlai can be tracked NOW for your location showing map with azimuth and elevation plus other details from your city location.

Track the satellite on the map from your city or location and see movement details for azimuth, elevation, latitude, longitude, range, height, and movement on the map or in text.







IsCatalogInMostPopularTable: catalog: 43156, numindb: 69
Update: records affected: 1



GetName: 43156 Zhou Enlai

Hit Count: updated at: Fri, 20 Jul 2018 02:42:54 GMT